CES7630 ZUXC-PHNL

Flight info

Callsign CES7630
Flight time N/A
Altitude 35100
Route BOPTU W162 KAKMI W144 IGNAK W179 WFX B213 ESPEG V154 SNF W269 OLPOV B213 WHA R343 PK A593 AKARA/K0907F351 A593 LAMEN/N0490F351 A593 SADLI Y590 BEDAR Y591 FUE Y23 KASTE Y81 TASOT Y57 LIGNI Y816 IPROS Y830 LAPIL OTR13 SEALS DCT 34N153E DCT 34N159E DCT 33N166E DCT 31N173E DCT 29N179E DCT 27N174W DCT 25N168W DCT CANON DCT CANON
Aircraft MD11/H-SDE1E2E3FGHIJ2J3J4J5M1RWXY/LB1D1

Departure

Time 2026-04-20 13:48
Airport Xichang Qingshan Airport (ZUXC)

Arrival

Time N/A
Airport Daniel K. Inouye International Airport (PHNL)
Time Latitude Longitude Altitude Speed Heading
2026-04-20 13:31 27.98292 102.18647 5089 ft 0 kts 88°
2026-04-20 13:38 27.98292 102.18632 5089 ft 4 kts 90°
2026-04-20 13:38 27.98292 102.18605 5089 ft 4 kts 85°
2026-04-20 13:38 27.98288 102.18582 5092 ft 4 kts 41°
2026-04-20 13:38 27.98277 102.18575 5094 ft 4 kts 344°
2026-04-20 13:39 27.98252 102.18585 5091 ft 4 kts 340°
2026-04-20 13:39 27.98228 102.18593 5092 ft 2 kts 359°
2026-04-20 13:39 27.98225 102.18593 5092 ft 7 kts 360°
2026-04-20 13:41 27.98226 102.18593 5090 ft 0 kts 360°
2026-04-20 13:41 27.98254 102.18592 5089 ft 8 kts 358°
2026-04-20 13:42 27.98335 102.18588 5089 ft 15 kts 358°
2026-04-20 13:42 27.98590 102.18579 5089 ft 21 kts 358°
2026-04-20 13:42 27.98738 102.18574 5089 ft 21 kts 358°
2026-04-20 13:43 27.98886 102.18568 5089 ft 21 kts 358°
2026-04-20 13:43 27.99035 102.18563 5090 ft 21 kts 358°
2026-04-20 13:43 27.99184 102.18559 5090 ft 21 kts 359°
2026-04-20 13:43 27.99332 102.18552 5090 ft 22 kts 357°
2026-04-20 13:44 27.99483 102.18545 5090 ft 22 kts 358°
2026-04-20 13:44 27.99635 102.18540 5090 ft 22 kts 358°
2026-04-20 13:44 27.99789 102.18534 5089 ft 22 kts 358°
2026-04-20 13:44 27.99946 102.18529 5089 ft 23 kts 358°
2026-04-20 13:45 28.00104 102.18524 5089 ft 23 kts 359°
2026-04-20 13:45 28.00263 102.18517 5089 ft 23 kts 356°
2026-04-20 13:45 28.00381 102.18510 5089 ft 14 kts 357°
2026-04-20 13:45 28.00470 102.18504 5090 ft 8 kts 354°
2026-04-20 13:46 28.00497 102.18474 5090 ft 3 kts 287°
2026-04-20 13:46 28.00500 102.18443 5091 ft 5 kts 275°
2026-04-20 13:46 28.00496 102.18383 5091 ft 9 kts 246°
2026-04-20 13:46 28.00467 102.18372 5091 ft 6 kts 179°
2026-04-20 13:47 28.00204 102.18381 5091 ft 76 kts 178°
2026-04-20 13:47 27.99436 102.18412 5090 ft 143 kts 178°
2026-04-20 13:47 27.98272 102.18456 5116 ft 184 kts 176°
2026-04-20 13:47 27.96980 102.18487 5550 ft 193 kts 173°
2026-04-20 13:48 27.95644 102.18560 6184 ft 188 kts 170°
2026-04-20 13:48 27.94321 102.18652 6777 ft 191 kts 169°
2026-04-20 13:48 27.92983 102.18743 7354 ft 194 kts 169°
2026-04-20 13:48 27.91635 102.18831 7924 ft 195 kts 169°
2026-04-20 13:49 27.90258 102.18861 8368 ft 206 kts 178°
2026-04-20 13:49 27.88768 102.18484 8521 ft 232 kts 191°
2026-04-20 13:49 27.87200 102.17874 8797 ft 242 kts 193°
2026-04-20 13:49 27.85583 102.17589 9155 ft 230 kts 166°
2026-04-20 13:50 27.84077 102.18070 9536 ft 224 kts 151°
2026-04-20 13:50 27.82634 102.18755 9906 ft 225 kts 149°
2026-04-20 13:50 27.81188 102.19455 10275 ft 227 kts 149°
2026-04-20 13:50 27.79783 102.20242 10616 ft 224 kts 140°
2026-04-20 13:51 27.78648 102.21429 10758 ft 223 kts 119°
2026-04-20 13:51 27.78036 102.23045 10892 ft 229 kts 97°
2026-04-20 13:51 27.78115 102.24877 11027 ft 245 kts 74°
2026-04-20 13:51 27.78779 102.26746 11178 ft 270 kts 66°
2026-04-20 13:52 27.79631 102.28708 11317 ft 294 kts 65°
2026-04-20 13:52 27.80595 102.30854 11484 ft 319 kts 65°
2026-04-20 13:52 27.81629 102.33144 11911 ft 331 kts 65°
2026-04-20 13:52 27.82680 102.35471 12664 ft 333 kts 64°
2026-04-20 13:53 27.83733 102.37808 13409 ft 336 kts 65°
2026-04-20 13:53 27.84793 102.40169 14179 ft 337 kts 65°
2026-04-20 13:53 27.85852 102.42529 14899 ft 337 kts 64°
2026-04-20 13:53 27.86909 102.44892 15699 ft 336 kts 64°
2026-04-20 13:54 27.87962 102.47248 16478 ft 336 kts 63°
2026-04-20 13:54 27.89012 102.49600 17221 ft 335 kts 62°
2026-04-20 13:54 27.90068 102.51958 17849 ft 338 kts 62°
2026-04-20 13:54 27.91135 102.54330 18495 ft 339 kts 60°
2026-04-20 13:55 27.92208 102.56712 19178 ft 341 kts 59°
2026-04-20 13:55 27.92923 102.58298 19601 ft 343 kts 59°
2026-04-20 13:55 27.94380 102.61526 20427 ft 346 kts 58°
2026-04-20 13:55 27.95106 102.63136 20822 ft 348 kts 57°
2026-04-20 13:56 27.96211 102.65586 21354 ft 351 kts 56°
2026-04-20 13:56 27.97706 102.68904 21993 ft 356 kts 56°
2026-04-20 13:56 27.98451 102.70561 22348 ft 358 kts 56°
2026-04-20 13:56 27.99586 102.73086 22795 ft 361 kts 56°
2026-04-20 13:57 28.00730 102.75629 23263 ft 364 kts 56°
2026-04-20 13:57 28.01880 102.78193 23758 ft 367 kts 56°
2026-04-20 13:57 28.03033 102.80768 24402 ft 365 kts 56°
2026-04-20 13:57 28.04179 102.83328 24999 ft 365 kts 56°
2026-04-20 13:58 28.05322 102.85883 25618 ft 363 kts 56°
2026-04-20 13:58 28.06462 102.88430 26216 ft 362 kts 56°
2026-04-20 13:58 28.07597 102.90968 26819 ft 361 kts 56°
2026-04-20 13:58 28.08730 102.93501 27324 ft 361 kts 56°
2026-04-20 13:59 28.09861 102.96034 27848 ft 359 kts 56°
2026-04-20 13:59 28.10987 102.98554 28462 ft 358 kts 56°
2026-04-20 13:59 28.12109 103.01067 28998 ft 357 kts 56°
2026-04-20 13:59 28.13228 103.03573 29500 ft 356 kts 56°
2026-04-20 14:00 28.14342 103.06073 30012 ft 355 kts 56°
2026-04-20 14:00 28.15452 103.08565 30423 ft 355 kts 56°
2026-04-20 14:00 28.16564 103.11061 30865 ft 354 kts 56°
2026-04-20 14:00 28.17673 103.13550 31294 ft 354 kts 56°
2026-04-20 14:01 28.18777 103.16032 31756 ft 352 kts 56°
2026-04-20 14:01 28.19878 103.18509 32173 ft 352 kts 56°
2026-04-20 14:01 28.20979 103.20988 32532 ft 351 kts 56°
2026-04-20 14:01 28.22075 103.23457 32910 ft 350 kts 56°
2026-04-20 14:02 28.23169 103.25923 33281 ft 349 kts 56°
2026-04-20 14:02 28.24258 103.28380 33651 ft 349 kts 56°
2026-04-20 14:02 28.25346 103.30834 34020 ft 348 kts 56°
2026-04-20 14:02 28.26425 103.33272 34388 ft 344 kts 56°
2026-04-20 14:03 28.27490 103.35696 34763 ft 342 kts 57°
2026-04-20 14:03 28.28529 103.38069 35069 ft 342 kts 56°
2026-04-20 14:03 28.30700 103.42994 35031 ft 349 kts 56°
2026-04-20 14:04 28.32853 103.47887 35034 ft 347 kts 57°
2026-04-20 14:04 28.34999 103.52763 35027 ft 345 kts 56°
2026-04-20 14:05 28.37144 103.57633 35032 ft 345 kts 56°
2026-04-20 14:05 28.39286 103.62503 35030 ft 345 kts 56°
2026-04-20 14:06 28.41427 103.67378 35032 ft 344 kts 56°
2026-04-20 14:06 28.43569 103.72257 35023 ft 345 kts 56°
2026-04-20 14:07 28.45705 103.77134 35022 ft 344 kts 57°
2026-04-20 14:07 28.47841 103.82013 35035 ft 346 kts 57°
2026-04-20 14:08 28.49986 103.86921 35022 ft 345 kts 56°
2026-04-20 14:08 28.52119 103.91809 35035 ft 345 kts 57°
2026-04-20 14:09 28.54247 103.96689 35024 ft 345 kts 56°
2026-04-20 14:09 28.56376 104.01574 35036 ft 346 kts 57°
2026-04-20 14:10 28.58504 104.06491 35027 ft 346 kts 57°
2026-04-20 14:10 28.60618 104.11402 35023 ft 345 kts 57°
2026-04-20 14:11 28.62741 104.16301 35027 ft 344 kts 56°
2026-04-20 14:11 28.65251 104.20862 35034 ft 336 kts 46°
2026-04-20 14:12 28.68586 104.24530 35024 ft 332 kts 34°
2026-04-20 14:12 28.72574 104.27123 35030 ft 330 kts 23°
2026-04-20 14:13 28.77001 104.28572 35029 ft 333 kts 12°
2026-04-20 14:13 28.81656 104.28826 35025 ft 338 kts
2026-04-20 14:14 28.86372 104.28521 35030 ft 339 kts
2026-04-20 14:14 28.91086 104.28207 35026 ft 339 kts
2026-04-20 14:15 28.95767 104.27927 35029 ft 339 kts
2026-04-20 14:15 29.00480 104.27660 35029 ft 339 kts
2026-04-20 14:16 29.05193 104.27396 35030 ft 339 kts
2026-04-20 14:16 29.09903 104.27134 35029 ft 339 kts
2026-04-20 14:17 29.14616 104.26873 35030 ft 339 kts
2026-04-20 14:17 29.19328 104.26610 35029 ft 339 kts
2026-04-20 14:18 29.24040 104.26348 35029 ft 339 kts
2026-04-20 14:18 29.28727 104.26372 35030 ft 335 kts 10°
2026-04-20 14:19 29.33328 104.27103 35028 ft 334 kts 12°
2026-04-20 14:19 29.37918 104.27915 35029 ft 334 kts 12°
2026-04-20 14:20 29.42511 104.28714 35030 ft 334 kts 12°
2026-04-20 14:20 29.47103 104.29503 35028 ft 334 kts 12°
2026-04-20 14:21 29.51698 104.30289 35025 ft 334 kts 12°
2026-04-20 14:21 29.56293 104.31074 35030 ft 334 kts 12°
2026-04-20 14:22 29.60887 104.31860 35026 ft 334 kts 12°
2026-04-20 14:22 29.65479 104.32646 35027 ft 334 kts 12°
2026-04-20 14:23 29.70071 104.33433 35027 ft 334 kts 12°
2026-04-20 14:23 29.74634 104.34216 35029 ft 334 kts 12°
2026-04-20 14:24 29.79229 104.35004 35029 ft 334 kts 12°
2026-04-20 14:24 29.83823 104.35793 35029 ft 334 kts 12°
2026-04-20 14:25 29.88419 104.36584 35031 ft 334 kts 12°
2026-04-20 14:25 29.93013 104.37374 35028 ft 334 kts 12°
2026-04-20 14:26 29.97608 104.38166 35029 ft 334 kts 12°
2026-04-20 14:26 30.02203 104.38958 35028 ft 334 kts 12°
2026-04-20 14:27 30.06797 104.39751 35028 ft 334 kts 12°
2026-04-20 14:27 30.11390 104.40546 35029 ft 334 kts 12°
2026-04-20 14:28 30.15978 104.41346 35028 ft 334 kts 12°
2026-04-20 14:28 30.20572 104.42151 35028 ft 334 kts 12°
2026-04-20 14:29 30.25163 104.42956 35027 ft 334 kts 12°
2026-04-20 14:29 30.29755 104.43760 35029 ft 334 kts 12°
2026-04-20 14:30 30.34349 104.44566 35029 ft 334 kts 12°
2026-04-20 14:30 30.38937 104.45371 35029 ft 334 kts 12°
2026-04-20 14:31 30.43530 104.46178 35029 ft 334 kts 12°
2026-04-20 14:31 30.48120 104.46991 35028 ft 333 kts 13°
2026-04-20 14:32 30.52603 104.48269 35033 ft 331 kts 21°
2026-04-20 14:32 30.56690 104.50682 35030 ft 331 kts 33°
2026-04-20 14:33 30.60174 104.54196 35028 ft 335 kts 44°
2026-04-20 14:33 30.62884 104.58653 35029 ft 343 kts 56°
2026-04-20 14:34 30.64677 104.63863 35029 ft 352 kts 65°
2026-04-20 14:34 30.66042 104.69340 35030 ft 353 kts 65°
2026-04-20 14:35 30.67399 104.74827 35029 ft 353 kts 65°
2026-04-20 14:35 30.68777 104.80296 35027 ft 353 kts 65°
2026-04-20 14:36 30.70158 104.85729 35028 ft 353 kts 65°
2026-04-20 14:36 30.71548 104.91195 35029 ft 353 kts 65°
2026-04-20 14:37 30.72938 104.96664 35029 ft 353 kts 65°
2026-04-20 14:37 30.74325 105.02137 35027 ft 353 kts 65°
2026-04-20 14:38 30.75711 105.07612 35029 ft 353 kts 65°
2026-04-20 14:38 30.77093 105.13084 35026 ft 352 kts 65°
2026-04-20 14:39 30.78473 105.18558 35027 ft 353 kts 65°
2026-04-20 14:39 30.79851 105.24035 35031 ft 353 kts 65°
2026-04-20 14:40 30.81226 105.29513 35031 ft 353 kts 65°
2026-04-20 14:40 30.82600 105.34996 35029 ft 353 kts 65°
2026-04-20 14:41 30.83971 105.40481 35028 ft 353 kts 66°
2026-04-20 14:41 30.85209 105.46034 35030 ft 355 kts 67°
2026-04-20 14:42 30.86192 105.50711 35030 ft 355 kts 68°
2026-04-20 14:42 30.87560 105.57206 35030 ft 355 kts 67°
2026-04-20 14:43 30.88741 105.62792 35030 ft 355 kts 67°
2026-04-20 14:43 30.89722 105.67433 35032 ft 355 kts 67°
2026-04-20 14:44 30.90901 105.73018 35029 ft 355 kts 67°
2026-04-20 14:44 30.92079 105.78607 35029 ft 355 kts 67°
2026-04-20 14:45 30.93255 105.84197 35028 ft 355 kts 68°
2026-04-20 14:45 30.94427 105.89789 35026 ft 355 kts 68°
2026-04-20 14:46 30.95599 105.95386 35031 ft 356 kts 68°
2026-04-20 14:46 30.96728 106.00994 35028 ft 359 kts 71°
2026-04-20 14:47 30.97256 106.06846 35030 ft 366 kts 76°
2026-04-20 14:48 30.97730 106.15728 35030 ft 366 kts 76°
2026-04-20 14:48 30.98060 106.21643 35029 ft 366 kts 76°
2026-04-20 14:49 30.98399 106.27557 35030 ft 366 kts 76°
2026-04-20 14:49 30.98740 106.33469 35027 ft 366 kts 76°
2026-04-20 14:50 30.99079 106.39384 35030 ft 366 kts 76°
2026-04-20 14:50 30.99415 106.45299 35032 ft 366 kts 76°
2026-04-20 14:51 30.99746 106.51179 35029 ft 366 kts 76°
2026-04-20 14:51 31.00077 106.57096 35028 ft 366 kts 76°
2026-04-20 14:52 31.00405 106.63015 35027 ft 366 kts 76°
2026-04-20 14:52 31.00731 106.68939 35039 ft 366 kts 76°
2026-04-20 14:53 31.01054 106.74864 35027 ft 366 kts 76°
2026-04-20 14:53 31.01374 106.80782 35028 ft 366 kts 76°
2026-04-20 14:54 31.01691 106.86704 35029 ft 366 kts 76°
2026-04-20 14:54 31.02006 106.92623 35031 ft 366 kts 76°
2026-04-20 14:55 31.02316 106.98552 35027 ft 367 kts 77°
2026-04-20 14:55 31.02603 107.04483 35027 ft 366 kts 77°
2026-04-20 14:56 31.02898 107.10416 35028 ft 366 kts 77°
2026-04-20 14:56 31.03198 107.16342 35030 ft 366 kts 77°
2026-04-20 14:57 31.03498 107.22272 35026 ft 366 kts 76°
2026-04-20 14:57 31.03797 107.28193 35027 ft 366 kts 77°
2026-04-20 14:58 31.04093 107.34123 35026 ft 366 kts 77°
2026-04-20 14:58 31.04386 107.40053 35027 ft 366 kts 77°
2026-04-20 14:59 31.04628 107.45995 35028 ft 367 kts 78°
2026-04-20 14:59 31.04808 107.51956 35030 ft 368 kts 78°
2026-04-20 15:00 31.04936 107.57926 35029 ft 368 kts 78°
2026-04-20 15:00 31.05055 107.63896 35026 ft 368 kts 78°
2026-04-20 15:01 31.05172 107.69821 35029 ft 368 kts 78°
2026-04-20 15:01 31.05286 107.75800 35026 ft 368 kts 78°
2026-04-20 15:02 31.05397 107.81764 35025 ft 368 kts 78°
2026-04-20 15:02 31.05511 107.87758 35027 ft 370 kts 78°
2026-04-20 15:03 31.05618 107.93739 35027 ft 369 kts 78°
2026-04-20 15:03 31.05724 107.99710 35030 ft 368 kts 78°
2026-04-20 15:04 31.05828 108.05683 35034 ft 369 kts 78°
2026-04-20 15:04 31.05929 108.11666 35025 ft 369 kts 78°
2026-04-20 15:05 31.06027 108.17640 35015 ft 368 kts 79°
2026-04-20 15:05 31.06123 108.23620 35027 ft 369 kts 79°
2026-04-20 15:06 31.06215 108.29601 35024 ft 369 kts 79°
2026-04-20 15:06 31.06304 108.35578 35036 ft 369 kts 79°
2026-04-20 15:07 31.06391 108.41561 35030 ft 369 kts 79°
2026-04-20 15:07 31.06475 108.47541 35026 ft 368 kts 79°
2026-04-20 15:08 31.06556 108.53518 35030 ft 369 kts 79°
2026-04-20 15:08 31.06635 108.59501 35027 ft 369 kts 79°
2026-04-20 15:09 31.06706 108.65487 35033 ft 369 kts 79°
2026-04-20 15:09 31.06757 108.71480 35034 ft 369 kts 79°
2026-04-20 15:10 31.06816 108.77472 35037 ft 369 kts 79°
2026-04-20 15:10 31.06880 108.83458 35030 ft 368 kts 79°
2026-04-20 15:11 31.06945 108.89447 35034 ft 370 kts 79°
2026-04-20 15:11 31.07007 108.95397 35027 ft 369 kts 79°
2026-04-20 15:12 31.07066 109.01391 35031 ft 369 kts 79°
2026-04-20 15:12 31.07121 109.07378 35025 ft 369 kts 79°
2026-04-20 15:13 31.07175 109.13377 35030 ft 369 kts 79°
2026-04-20 15:13 31.07226 109.19367 35037 ft 369 kts 79°
2026-04-20 15:14 31.07273 109.25358 35034 ft 369 kts 79°
2026-04-20 15:14 31.07319 109.31351 35030 ft 370 kts 79°
2026-04-20 15:15 31.07362 109.37346 35022 ft 369 kts 79°
2026-04-20 15:15 31.07403 109.43351 35033 ft 371 kts 79°
2026-04-20 15:16 31.07439 109.49355 35038 ft 371 kts 79°
2026-04-20 15:16 31.07474 109.55370 35042 ft 372 kts 79°
2026-04-20 15:17 31.07501 109.61385 35032 ft 370 kts 79°
2026-04-20 15:17 31.07508 109.67389 35031 ft 370 kts 80°
2026-04-20 15:18 31.06788 109.73454 35031 ft 389 kts 95°
2026-04-20 15:18 31.05101 109.79517 35024 ft 395 kts 97°
2026-04-20 15:19 31.03316 109.85579 35025 ft 394 kts 97°
2026-04-20 15:19 31.01585 109.91598 35023 ft 385 kts 97°
2026-04-20 15:20 30.99933 109.97414 35024 ft 379 kts 96°
2026-04-20 15:20 30.98295 110.03251 35025 ft 380 kts 96°
2026-04-20 15:21 30.96651 110.09090 35025 ft 379 kts 96°
2026-04-20 15:21 30.95002 110.14925 35032 ft 379 kts 96°
2026-04-20 15:22 30.93348 110.20763 35032 ft 380 kts 97°
2026-04-20 15:22 30.91691 110.26599 35030 ft 380 kts 96°
2026-04-20 15:23 30.90030 110.32434 35030 ft 379 kts 96°
2026-04-20 15:23 30.88368 110.38267 35031 ft 379 kts 96°
2026-04-20 15:24 30.86705 110.44085 35030 ft 379 kts 96°
2026-04-20 15:24 30.85039 110.49910 35027 ft 380 kts 96°
2026-04-20 15:25 30.83369 110.55736 35027 ft 380 kts 96°
2026-04-20 15:25 30.81695 110.61563 35031 ft 380 kts 97°
2026-04-20 15:26 30.80002 110.67385 35028 ft 380 kts 97°
2026-04-20 15:26 30.78308 110.73200 35032 ft 380 kts 97°
2026-04-20 15:27 30.76622 110.79019 35034 ft 380 kts 97°
2026-04-20 15:27 30.74935 110.84841 35029 ft 380 kts 97°
2026-04-20 15:28 30.73259 110.90621 35030 ft 380 kts 97°
2026-04-20 15:28 30.71568 110.96440 35022 ft 380 kts 97°
2026-04-20 15:29 30.69874 111.02259 35030 ft 380 kts 97°
2026-04-20 15:29 30.68178 111.08074 35029 ft 380 kts 97°
2026-04-20 15:30 30.66481 111.13881 35029 ft 380 kts 97°
2026-04-20 15:30 30.64779 111.19698 35025 ft 380 kts 97°
2026-04-20 15:31 30.63139 111.25515 35031 ft 374 kts 92°
2026-04-20 15:31 30.62796 111.30317 35023 ft 350 kts 75°
2026-04-20 15:32 30.63505 111.35840 35030 ft 345 kts 70°
2026-04-20 15:32 30.64325 111.41334 35029 ft 346 kts 71°
2026-04-20 15:33 30.65089 111.46850 35030 ft 347 kts 72°
2026-04-20 15:33 30.65523 111.52484 35028 ft 352 kts 76°
2026-04-20 15:34 30.65808 111.58162 35027 ft 352 kts 76°
2026-04-20 15:34 30.66089 111.63841 35028 ft 352 kts 76°
2026-04-20 15:35 30.66374 111.69519 35028 ft 352 kts 76°
2026-04-20 15:35 30.66662 111.75199 35030 ft 352 kts 76°
2026-04-20 15:36 30.66951 111.80876 35026 ft 352 kts 76°
2026-04-20 15:36 30.67238 111.86557 35030 ft 352 kts 76°
2026-04-20 15:37 30.67522 111.92199 35028 ft 352 kts 76°
2026-04-20 15:37 30.67833 111.97872 35028 ft 351 kts 75°
2026-04-20 15:38 30.68216 112.03558 35029 ft 351 kts 75°
2026-04-20 15:38 30.68605 112.09172 35027 ft 351 kts 75°
2026-04-20 15:39 30.68994 112.14821 35027 ft 351 kts 75°
2026-04-20 15:39 30.69380 112.20472 35028 ft 351 kts 75°
2026-04-20 15:40 30.69763 112.26125 35028 ft 351 kts 75°
2026-04-20 15:40 30.70143 112.31782 35031 ft 351 kts 75°
2026-04-20 15:41 30.70521 112.37434 35029 ft 351 kts 75°
2026-04-20 15:41 30.70897 112.43092 35027 ft 351 kts 75°
2026-04-20 15:42 30.71270 112.48747 35028 ft 351 kts 75°
2026-04-20 15:42 30.71640 112.54403 35027 ft 351 kts 75°
2026-04-20 15:43 30.72009 112.60065 35030 ft 351 kts 75°
2026-04-20 15:43 30.72374 112.65723 35030 ft 351 kts 75°
2026-04-20 15:44 30.72738 112.71386 35030 ft 351 kts 75°
2026-04-20 15:44 30.73098 112.77044 35029 ft 351 kts 75°
2026-04-20 15:45 30.73457 112.82706 35028 ft 351 kts 76°
2026-04-20 15:45 30.73813 112.88369 35030 ft 351 kts 76°
2026-04-20 15:46 30.74158 112.94037 35028 ft 352 kts 76°
2026-04-20 15:46 30.74490 112.99708 35031 ft 352 kts 76°
2026-04-20 15:47 30.74829 113.05374 35030 ft 351 kts 76°
2026-04-20 15:47 30.75173 113.11040 35030 ft 351 kts 76°
2026-04-20 15:48 30.75438 113.16733 35030 ft 354 kts 77°
2026-04-20 15:48 30.75591 113.22452 35030 ft 354 kts 78°
2026-04-20 15:49 30.75734 113.28175 35028 ft 354 kts 78°
2026-04-20 15:49 30.75879 113.33861 35028 ft 354 kts 78°
2026-04-20 15:50 30.76024 113.39583 35028 ft 354 kts 78°
2026-04-20 15:50 30.76168 113.45305 35030 ft 354 kts 78°
2026-04-20 15:51 30.76310 113.51028 35028 ft 354 kts 78°
2026-04-20 15:51 30.76449 113.56749 35028 ft 354 kts 78°
2026-04-20 15:52 30.76586 113.62478 35029 ft 354 kts 78°
2026-04-20 15:52 30.76720 113.68202 35030 ft 354 kts 78°
2026-04-20 15:53 30.76916 113.76790 35028 ft 354 kts 78°
2026-04-20 15:53 30.77044 113.82516 35027 ft 354 kts 78°
2026-04-20 15:54 30.77169 113.88242 35028 ft 354 kts 78°
2026-04-20 15:54 30.77292 113.93973 35030 ft 354 kts 78°
2026-04-20 15:55 30.77412 113.99701 35029 ft 354 kts 78°
2026-04-20 15:55 30.77590 114.05418 35028 ft 353 kts 77°
2026-04-20 15:56 30.77815 114.11118 35028 ft 353 kts 77°
2026-04-20 15:56 30.78048 114.16819 35028 ft 353 kts 77°
2026-04-20 15:57 30.78808 114.22316 35034 ft 337 kts 63°
2026-04-20 15:57 30.80438 114.27354 35029 ft 334 kts 60°
2026-04-20 15:58 30.82136 114.32394 35027 ft 335 kts 61°
2026-04-20 15:58 30.83798 114.37461 35028 ft 335 kts 61°
2026-04-20 15:59 30.85443 114.42537 35028 ft 335 kts 61°
2026-04-20 15:59 30.87086 114.47617 35031 ft 335 kts 61°
2026-04-20 16:00 30.88735 114.52693 35030 ft 335 kts 61°
2026-04-20 16:00 30.90385 114.57772 35030 ft 335 kts 61°
2026-04-20 16:01 30.92033 114.62848 35027 ft 335 kts 61°
2026-04-20 16:01 30.93680 114.67931 35027 ft 335 kts 61°
2026-04-20 16:02 30.95324 114.73012 35030 ft 335 kts 61°
2026-04-20 16:02 30.96967 114.78096 35027 ft 335 kts 61°
2026-04-20 16:03 30.98608 114.83181 35027 ft 335 kts 61°
2026-04-20 16:03 31.00247 114.88269 35027 ft 335 kts 61°
2026-04-20 16:04 31.01884 114.93364 35029 ft 335 kts 61°
2026-04-20 16:04 31.03509 114.98462 35028 ft 336 kts 61°
2026-04-20 16:05 31.05136 115.03559 35027 ft 335 kts 61°
2026-04-20 16:05 31.06753 115.08620 35021 ft 335 kts 61°
2026-04-20 16:06 31.08379 115.13713 35032 ft 335 kts 61°
2026-04-20 16:06 31.10006 115.18815 35027 ft 336 kts 61°
2026-04-20 16:07 31.11626 115.23927 35028 ft 336 kts 62°
2026-04-20 16:07 31.13242 115.29036 35026 ft 335 kts 61°
2026-04-20 16:08 31.14888 115.34128 35030 ft 335 kts 61°
2026-04-20 16:08 31.16539 115.39215 35029 ft 335 kts 61°
2026-04-20 16:09 31.18188 115.44305 35027 ft 335 kts 61°
2026-04-20 16:09 31.19836 115.49399 35028 ft 335 kts 61°
2026-04-20 16:10 31.21482 115.54496 35031 ft 335 kts 61°
2026-04-20 16:10 31.23125 115.59593 35022 ft 335 kts 61°
2026-04-20 16:11 31.24770 115.64703 35029 ft 336 kts 61°
2026-04-20 16:11 31.26413 115.69814 35027 ft 336 kts 61°
2026-04-20 16:12 31.28052 115.74924 35030 ft 336 kts 61°
2026-04-20 16:12 31.29682 115.80032 35028 ft 335 kts 61°
2026-04-20 16:13 31.31308 115.85150 35027 ft 335 kts 61°
2026-04-20 16:13 31.32947 115.90254 35032 ft 335 kts 61°
2026-04-20 16:14 31.34608 115.95348 35030 ft 335 kts 61°
2026-04-20 16:14 31.36271 116.00442 35030 ft 335 kts 61°
2026-04-20 16:15 31.37934 116.05542 35028 ft 335 kts 61°
2026-04-20 16:15 31.39595 116.10644 35034 ft 336 kts 61°
2026-04-20 16:16 31.41254 116.15750 35031 ft 335 kts 61°
2026-04-20 16:16 31.42897 116.20814 35032 ft 335 kts 61°
2026-04-20 16:17 31.44551 116.25921 35027 ft 335 kts 61°
2026-04-20 16:17 31.46202 116.31026 35032 ft 335 kts 61°
2026-04-20 16:18 31.47852 116.36134 35028 ft 335 kts 61°
2026-04-20 16:18 31.49500 116.41246 35028 ft 335 kts 61°
2026-04-20 16:19 31.51145 116.46356 35030 ft 335 kts 61°
2026-04-20 16:19 31.52789 116.51472 35027 ft 335 kts 61°
2026-04-20 16:20 31.54431 116.56591 35027 ft 335 kts 61°
2026-04-20 16:20 31.55794 116.60844 35030 ft 335 kts 61°
2026-04-20 16:21 31.57432 116.65963 35028 ft 335 kts 61°
2026-04-20 16:21 31.59068 116.71086 35031 ft 335 kts 61°
2026-04-20 16:22 31.60968 116.77044 35028 ft 335 kts 61°
2026-04-20 16:22 31.62324 116.81344 35030 ft 336 kts 62°
2026-04-20 16:23 31.63940 116.86485 35027 ft 336 kts 62°
2026-04-20 16:23 31.65524 116.91499 35024 ft 336 kts 61°
2026-04-20 16:24 31.67148 116.96636 34930 ft 335 kts 61°
2026-04-20 16:24 31.68731 117.01667 34928 ft 336 kts 62°
2026-04-20 16:25 31.70322 117.06827 34927 ft 336 kts 62°
2026-04-20 16:25 31.71911 117.11991 34928 ft 336 kts 62°
2026-04-20 16:26 31.73499 117.17155 34928 ft 336 kts 62°
2026-04-20 16:26 31.75086 117.22322 34928 ft 336 kts 62°
2026-04-20 16:27 31.76643 117.27415 34929 ft 337 kts 63°
2026-04-20 16:27 31.77405 117.32962 34930 ft 356 kts 81°
2026-04-20 16:28 31.77044 117.38841 34930 ft 363 kts 84°
2026-04-20 16:28 31.76572 117.44657 34929 ft 362 kts 84°
2026-04-20 16:29 31.76133 117.50554 34929 ft 362 kts 84°
2026-04-20 16:29 31.75719 117.56405 34929 ft 362 kts 84°
2026-04-20 16:30 31.75306 117.62332 34929 ft 362 kts 83°
2026-04-20 16:30 31.74896 117.68224 34929 ft 362 kts 84°
2026-04-20 16:31 31.74482 117.74116 34928 ft 362 kts 84°
2026-04-20 16:31 31.74069 117.79967 34928 ft 362 kts 84°
2026-04-20 16:32 31.73649 117.85860 34929 ft 362 kts 84°
2026-04-20 16:32 31.73228 117.91750 34930 ft 362 kts 84°
2026-04-20 16:33 31.72803 117.97639 34928 ft 362 kts 84°
2026-04-20 16:33 31.72376 118.03531 34930 ft 362 kts 84°
2026-04-20 16:34 31.71945 118.09423 34928 ft 362 kts 84°
2026-04-20 16:34 31.71517 118.15313 34929 ft 362 kts 84°
2026-04-20 16:35 31.71100 118.21204 34929 ft 362 kts 84°
2026-04-20 16:35 31.70689 118.27092 34929 ft 362 kts 84°
2026-04-20 16:36 31.70277 118.32981 34929 ft 362 kts 84°
2026-04-20 16:36 31.69863 118.38871 34929 ft 362 kts 84°
2026-04-20 16:37 31.69446 118.44760 34928 ft 362 kts 84°
2026-04-20 16:37 31.69026 118.50650 34928 ft 362 kts 84°
2026-04-20 16:38 31.68604 118.56538 34929 ft 362 kts 84°
2026-04-20 16:38 31.68179 118.62425 34928 ft 362 kts 84°
2026-04-20 16:39 31.67751 118.68313 34928 ft 362 kts 84°
2026-04-20 16:39 31.67321 118.74201 34928 ft 362 kts 84°
2026-04-20 16:40 31.66887 118.80091 34929 ft 362 kts 84°
2026-04-20 16:40 31.66454 118.85944 34929 ft 362 kts 84°
2026-04-20 16:41 31.66012 118.91869 34929 ft 362 kts 84°
2026-04-20 16:41 31.65573 118.97720 34928 ft 362 kts 84°
2026-04-20 16:42 31.65120 119.03611 34932 ft 362 kts 83°
2026-04-20 16:42 31.64780 119.09485 34929 ft 360 kts 82°
2026-04-20 16:43 31.64489 119.15356 34929 ft 360 kts 82°
2026-04-20 16:43 31.64227 119.21218 34929 ft 360 kts 82°
2026-04-20 16:44 31.63967 119.27080 34925 ft 360 kts 82°
2026-04-20 16:44 31.63704 119.32943 34929 ft 360 kts 82°
2026-04-20 16:45 31.63435 119.38808 34929 ft 360 kts 82°
2026-04-20 16:45 31.63157 119.44672 34929 ft 360 kts 82°
2026-04-20 16:46 31.62882 119.50454 34929 ft 360 kts 82°
2026-04-20 16:46 31.62602 119.56317 34929 ft 360 kts 82°
2026-04-20 16:47 31.62321 119.62182 34929 ft 360 kts 82°
2026-04-20 16:47 31.62038 119.68047 34928 ft 360 kts 82°
2026-04-20 16:48 31.61767 119.73910 34929 ft 360 kts 82°
2026-04-20 16:48 31.61501 119.79730 34929 ft 360 kts 82°
2026-04-20 16:49 31.61233 119.85595 34929 ft 360 kts 82°
2026-04-20 16:49 31.60967 119.91371 34929 ft 360 kts 82°
2026-04-20 16:50 31.60694 119.97235 34929 ft 360 kts 82°
2026-04-20 16:50 31.60416 120.03137 34929 ft 360 kts 82°
2026-04-20 16:51 31.60137 120.08998 34928 ft 360 kts 82°
2026-04-20 16:51 31.59862 120.14738 34928 ft 360 kts 82°
2026-04-20 16:52 31.59578 120.20600 34929 ft 360 kts 82°
2026-04-20 16:52 31.59291 120.26468 34926 ft 360 kts 82°
2026-04-20 16:53 31.58741 120.32348 34929 ft 373 kts 92°
2026-04-20 16:53 31.57145 120.38226 34929 ft 381 kts 98°
2026-04-20 16:54 31.55339 120.44082 34929 ft 382 kts 98°
2026-04-20 16:54 31.53560 120.49939 34928 ft 381 kts 97°
2026-04-20 16:55 31.51808 120.55798 34929 ft 381 kts 97°
2026-04-20 16:55 31.50062 120.61657 34929 ft 381 kts 97°
2026-04-20 16:56 31.48315 120.67516 34929 ft 381 kts 97°
2026-04-20 16:56 31.46566 120.73370 34929 ft 381 kts 97°
2026-04-20 16:57 31.44813 120.79230 34929 ft 381 kts 97°
2026-04-20 16:57 31.43057 120.85085 34929 ft 381 kts 97°
2026-04-20 16:58 31.41299 120.90938 34928 ft 381 kts 97°
2026-04-20 16:58 31.39538 120.96788 34929 ft 381 kts 97°
2026-04-20 16:59 31.37775 121.02634 34929 ft 381 kts 97°
2026-04-20 16:59 31.36008 121.08482 34934 ft 381 kts 97°
2026-04-20 17:00 31.33304 121.17244 34929 ft 382 kts 98°
2026-04-20 17:01 31.31503 121.23045 34928 ft 382 kts 98°
2026-04-20 17:01 31.29684 121.28920 34928 ft 382 kts 98°
2026-04-20 17:02 31.27980 121.34549 34928 ft 379 kts 96°
2026-04-20 17:02 31.26491 121.40426 34928 ft 376 kts 94°
2026-04-20 17:03 31.25080 121.46311 34929 ft 376 kts 94°
2026-04-20 17:03 31.23663 121.52193 34928 ft 376 kts 94°
2026-04-20 17:04 31.22236 121.58071 34929 ft 376 kts 94°
2026-04-20 17:04 31.20802 121.63952 34928 ft 376 kts 94°
2026-04-20 17:05 31.19365 121.69830 34929 ft 376 kts 94°
2026-04-20 17:05 31.17950 121.75710 34928 ft 373 kts 91°
2026-04-20 17:05 31.17565 121.78647 34926 ft 359 kts 81°
2026-04-20 17:06 31.17728 121.81480 34930 ft 345 kts 71°
2026-04-20 17:06 31.18760 121.86909 34928 ft 342 kts 67°
2026-04-20 17:07 31.19884 121.92304 34931 ft 342 kts 68°
2026-04-20 17:07 31.20961 121.97721 34928 ft 342 kts 68°
2026-04-20 17:08 31.22010 122.03149 34928 ft 343 kts 68°
2026-04-20 17:08 31.23049 122.08585 34928 ft 343 kts 68°
2026-04-20 17:09 31.24051 122.13860 34928 ft 343 kts 68°
2026-04-20 17:09 31.24892 122.18296 34928 ft 343 kts 68°
2026-04-20 17:10 31.25922 122.23739 34928 ft 343 kts 68°
2026-04-20 17:10 31.26949 122.29180 34928 ft 343 kts 68°
2026-04-20 17:11 31.28147 122.35546 34928 ft 343 kts 68°
2026-04-20 17:11 31.28996 122.40071 34928 ft 343 kts 68°
2026-04-20 17:12 31.30018 122.45516 34928 ft 343 kts 68°
2026-04-20 17:12 31.31053 122.50959 34928 ft 343 kts 68°
2026-04-20 17:13 31.32094 122.56396 34935 ft 343 kts 68°
2026-04-20 17:13 31.33137 122.61834 34928 ft 343 kts 68°
2026-04-20 17:14 31.34178 122.67275 34928 ft 343 kts 68°
2026-04-20 17:14 31.35218 122.72717 34935 ft 343 kts 68°
2026-04-20 17:15 31.36257 122.78159 34928 ft 343 kts 68°
2026-04-20 17:15 31.37308 122.83596 34928 ft 343 kts 68°
2026-04-20 17:16 31.38364 122.89031 34928 ft 343 kts 68°
2026-04-20 17:16 31.39420 122.94470 34928 ft 343 kts 68°
2026-04-20 17:17 31.40474 122.99906 34932 ft 343 kts 68°
2026-04-20 17:17 31.41519 123.05310 34928 ft 343 kts 68°
2026-04-20 17:18 31.42568 123.10750 34928 ft 343 kts 68°
2026-04-20 17:18 31.43615 123.16191 34928 ft 343 kts 68°
2026-04-20 17:19 31.44661 123.21638 34928 ft 343 kts 68°
2026-04-20 17:19 31.45703 123.27081 34933 ft 343 kts 68°
2026-04-20 17:20 31.46744 123.32530 34928 ft 343 kts 68°